When you browse on this site, cookies collect data to enhance your experience and personalize the content and advertising you see.
Visit our Privacy Policy to learn more. By continuing to use the site, you agree to this use of cookies and data.

Tiempo cada hora Uige

Hoy, 15 Agosto, Sábado

Tiempo Temperatura Precipitaciones Viento Presión Humedad
00:00 +19°C° 0 mm 1 mps 690 mmHg 90%
01:00 +19°C° 0 mm 1 mps 690 mmHg 95%
02:00 +19°C° 0 mm 1 mps 690 mmHg 93%
03:00 +19°C° 0 mm 1 mps 690 mmHg 91%
04:00 +20°C° 0 mm 1 mps 690 mmHg 89%
05:00 +20°C° 0 mm 1 mps 691 mmHg 87%
06:00 +20°C° 0 mm 1 mps 691 mmHg 85%
07:00 +20°C° 0 mm 1 mps 691 mmHg 83%
08:00 +22°C° 0 mm 1 mps 692 mmHg 75%
09:00 +24°C° 0 mm 1 mps 692 mmHg 67%
10:00 +25°C° 0 mm 1 mps 693 mmHg 59%
11:00 +29°C° 0 mm 1 mps 692 mmHg 49%
12:00 +32°C° 0 mm 1 mps 691 mmHg 39%
13:00 +36°C° 0 mm 2 mps 691 mmHg 29%
14:00 +35°C° 0 mm 2 mps 690 mmHg 29%
15:00 +35°C° 0 mm 2 mps 689 mmHg 28%
16:00 +35°C° 0 mm 2 mps 689 mmHg 27%
17:00 +31°C° 0 mm 2 mps 689 mmHg 34%
18:00 +29°C° 0 mm 2 mps 689 mmHg 41%
19:00 +26°C° 0 mm 1 mps 689 mmHg 47%
20:00 +25°C° 0 mm 1 mps 689 mmHg 53%
21:00 +23°C° 0 mm 1 mps 690 mmHg 58%
22:00 +22°C° 0 mm 1 mps 690 mmHg 64%
23:00 +21°C° 0 mm 1 mps 690 mmHg 69%

Mañana, 16 Agosto, Domingo

Tiempo Temperatura Precipitaciones Viento Presión Humedad
00:00 +20°C° 0 mm 1 mps 690 mmHg 75%
01:00 +19°C° 0 mm 1 mps 689 mmHg 80%
02:00 +18°C° 0 mm 1 mps 689 mmHg 85%
03:00 +18°C° 0 mm 1 mps 689 mmHg 90%
04:00 +16°C° 0 mm 1 mps 689 mmHg 95%
05:00 +15°C° 0 mm 0 mps 689 mmHg 92%
06:00 +16°C° 0 mm 0 mps 690 mmHg 89%
07:00 +17°C° 0 mm 0 mps 690 mmHg 86%
08:00 +23°C° 0 mm 1 mps 691 mmHg 69%
09:00 +28°C° 0 mm 1 mps 692 mmHg 51%
10:00 +32°C° 0 mm 1 mps 693 mmHg 34%
11:00 +34°C° 0 mm 1 mps 692 mmHg 30%
12:00 +37°C° 0 mm 2 mps 692 mmHg 26%
13:00 +38°C° 0 mm 2 mps 691 mmHg 22%
14:00 +38°C° 0 mm 2 mps 690 mmHg 23%
15:00 +37°C° 0 mm 3 mps 690 mmHg 24%
16:00 +37°C° 0 mm 3 mps 689 mmHg 24%
17:00 +34°C° 0 mm 3 mps 689 mmHg 30%
18:00 +30°C° 0 mm 3 mps 689 mmHg 36%
19:00 +28°C° 0 mm 2 mps 689 mmHg 41%
20:00 +25°C° 0 mm 2 mps 690 mmHg 53%
21:00 +23°C° 0 mm 1 mps 690 mmHg 65%
22:00 +21°C° 0 mm 1 mps 690 mmHg 76%
23:00 +20°C° 0 mm 1 mps 690 mmHg 83%

Pasado mañana, 17 Agosto, Lunes

Tiempo Temperatura Precipitaciones Viento Presión Humedad
00:00 +19°C° 0 mm 1 mps 690 mmHg 89%
01:00 +18°C° 0 mm 1 mps 690 mmHg 96%
02:00 +18°C° 0 mm 1 mps 689 mmHg 96%
03:00 +16°C° 0 mm 1 mps 689 mmHg 96%
04:00 +16°C° 0 mm 1 mps 689 mmHg 96%
05:00 +18°C° 0 mm 1 mps 689 mmHg 92%
06:00 +18°C° 0 mm 1 mps 690 mmHg 89%
07:00 +19°C° 0 mm 1 mps 691 mmHg 85%
08:00 +22°C° 0 mm 1 mps 691 mmHg 69%
09:00 +26°C° 0 mm 1 mps 692 mmHg 53%
10:00 +29°C° 0 mm 2 mps 692 mmHg 37%
11:00 +31°C° 0 mm 2 mps 692 mmHg 32%
12:00 +34°C° 0 mm 2 mps 691 mmHg 27%
13:00 +36°C° 0 mm 2 mps 691 mmHg 22%
14:00 +36°C° 0 mm 3 mps 690 mmHg 22%
15:00 +36°C° 0 mm 3 mps 690 mmHg 22%
16:00 +36°C° 0 mm 3 mps 689 mmHg 22%
17:00 +33°C° 0 mm 3 mps 689 mmHg 29%
18:00 +29°C° 0 mm 3 mps 689 mmHg 36%
19:00 +26°C° 0 mm 2 mps 689 mmHg 42%
20:00 +24°C° 0 mm 2 mps 690 mmHg 54%
21:00 +22°C° 0 mm 1 mps 690 mmHg 66%
22:00 +19°C° 0 mm 1 mps 690 mmHg 78%
23:00 +18°C° 0 mm 1 mps 690 mmHg 84%

18 Agosto, Martes

Tiempo Temperatura Precipitaciones Viento Presión Humedad
00:00 +16°C° 0 mm 1 mps 689 mmHg 90%
01:00 +16°C° 0 mm 1 mps 689 mmHg 97%
02:00 +16°C° 0 mm 1 mps 689 mmHg 96%
03:00 +16°C° 0 mm 1 mps 689 mmHg 94%
04:00 +16°C° 0 mm 1 mps 689 mmHg 93%
05:00 +16°C° 0 mm 1 mps 689 mmHg 91%
06:00 +18°C° 0 mm 1 mps 689 mmHg 88%
07:00 +16°C° 0 mm 0 mps 690 mmHg 85%
08:00 +21°C° 0 mm 1 mps 690 mmHg 69%
09:00 +25°C° 0 mm 1 mps 691 mmHg 53%
10:00 +29°C° 0 mm 2 mps 692 mmHg 37%
11:00 +31°C° 0 mm 2 mps 691 mmHg 32%
12:00 +34°C° 0 mm 2 mps 690 mmHg 27%
13:00 +36°C° 0 mm 2 mps 690 mmHg 22%
14:00 +36°C° 0 mm 3 mps 689 mmHg 22%
15:00 +36°C° 0 mm 3 mps 688 mmHg 22%
16:00 +35°C° 0 mm 3 mps 688 mmHg 22%
17:00 +31°C° 0 mm 3 mps 688 mmHg 28%
18:00 +28°C° 0 mm 2 mps 688 mmHg 34%
19:00 +25°C° 0 mm 2 mps 688 mmHg 40%
20:00 +23°C° 0 mm 2 mps 688 mmHg 49%
21:00 +21°C° 0 mm 1 mps 689 mmHg 58%
22:00 +19°C° 0 mm 1 mps 689 mmHg 67%
23:00 +18°C° 0 mm 1 mps 689 mmHg 76%

19 Agosto, Miércoles

Tiempo Temperatura Precipitaciones Viento Presión Humedad
00:00 +16°C° 0 mm 1 mps 688 mmHg 85%
01:00 +15°C° 0 mm 1 mps 688 mmHg 94%
02:00 +15°C° 0 mm 1 mps 688 mmHg 93%
03:00 +15°C° 0 mm 1 mps 688 mmHg 92%
04:00 +16°C° 0 mm 1 mps 689 mmHg 91%
05:00 +16°C° 0 mm 1 mps 689 mmHg 88%
06:00 +16°C° 0 mm 1 mps 690 mmHg 85%
07:00 +16°C° 0 mm 1 mps 690 mmHg 82%
08:00 +21°C° 0 mm 1 mps 691 mmHg 67%
09:00 +25°C° 0 mm 1 mps 691 mmHg 52%
10:00 +28°C° 0 mm 1 mps 692 mmHg 37%
11:00 +30°C° 0 mm 2 mps 691 mmHg 33%
12:00 +32°C° 0 mm 2 mps 690 mmHg 28%
13:00 +35°C° 0 mm 3 mps 689 mmHg 24%
14:00 +35°C° 0 mm 3 mps 689 mmHg 24%
15:00 +34°C° 0 mm 3 mps 688 mmHg 24%
16:00 +34°C° 0 mm 3 mps 687 mmHg 24%
17:00 +31°C° 0 mm 2 mps 688 mmHg 28%
18:00 +28°C° 0 mm 2 mps 688 mmHg 33%
19:00 +25°C° 0 mm 2 mps 688 mmHg 38%
20:00 +23°C° 0 mm 1 mps 688 mmHg 48%
21:00 +21°C° 0 mm 1 mps 689 mmHg 57%
22:00 +19°C° 0 mm 1 mps 689 mmHg 67%
23:00 +18°C° 0 mm 1 mps 689 mmHg 75%

20 Agosto, Jueves

Tiempo Temperatura Precipitaciones Viento Presión Humedad
00:00 +16°C° 0 mm 1 mps 689 mmHg 84%
01:00 +15°C° 0 mm 1 mps 688 mmHg 92%
02:00 +15°C° 0 mm 1 mps 688 mmHg 93%
03:00 +14°C° 0 mm 1 mps 688 mmHg 95%
04:00 +13°C° 0 mm 0 mps 688 mmHg 97%
05:00 +15°C° 0 mm 1 mps 688 mmHg 93%
06:00 +16°C° 0 mm 1 mps 689 mmHg 90%
07:00 +16°C° 0 mm 1 mps 690 mmHg 87%
08:00 +20°C° 0 mm 1 mps 690 mmHg 73%
09:00 +23°C° 0 mm 1 mps 691 mmHg 58%
10:00 +26°C° 0 mm 2 mps 692 mmHg 44%
11:00 +29°C° 0 mm 2 mps 691 mmHg 38%
12:00 +31°C° 0 mm 2 mps 691 mmHg 32%
13:00 +35°C° 0 mm 2 mps 691 mmHg 25%
14:00 +35°C° 0 mm 2 mps 690 mmHg 26%
15:00 +34°C° 0 mm 2 mps 689 mmHg 26%
16:00 +34°C° 0 mm 3 mps 689 mmHg 27%
17:00 +30°C° 0 mm 2 mps 689 mmHg 33%
18:00 +27°C° 0 mm 2 mps 689 mmHg 39%
19:00 +24°C° 0 mm 2 mps 689 mmHg 45%
20:00 +23°C° 0 mm 2 mps 689 mmHg 51%
21:00 +21°C° 0 mm 1 mps 690 mmHg 57%
22:00 +19°C° 0 mm 1 mps 690 mmHg 63%
23:00 +18°C° 0 mm 1 mps 690 mmHg 71%
Mostrar más